When you browse on this site, cookies collect data to enhance your experience and personalize the content and advertising you see.
Visit our Privacy Policy to learn more. By continuing to use the site, you agree to this use of cookies and data.
  • In United Kingdom
  • List of Countries
  • For 7 days
  • Water Temperature
  • Weather Map
  • Weather Widgets
  • user-avatar
    Login

    Hourly Weather Ali Sabieh

    Today, 19 September, Thursday

    Time Temperature Precipitation Wind Pressure Humidity
    00:00 +32°C° 0 mm 2 mps 696 mmHg 52%
    01:00 +31°C° 0 mm 2 mps 695 mmHg 53%
    02:00 +31°C° 0 mm 1 mps 695 mmHg 54%
    03:00 +29°C° 0 mm 0 mps 694 mmHg 56%
    04:00 +30°C° 0 mm 1 mps 695 mmHg 55%
    05:00 +30°C° 0 mm 2 mps 695 mmHg 55%
    06:00 +30°C° 0 mm 3 mps 696 mmHg 54%
    07:00 +32°C° 0 mm 4 mps 696 mmHg 49%
    08:00 +33°C° 0 mm 4 mps 697 mmHg 43%
    09:00 +34°C° 0 mm 5 mps 697 mmHg 38%
    10:00 +35°C° 0 mm 5 mps 697 mmHg 35%
    11:00 +36°C° 0 mm 5 mps 696 mmHg 33%
    12:00 +37°C° 0 mm 5 mps 696 mmHg 31%
    13:00 +38°C° 0 mm 4 mps 695 mmHg 30%
    14:00 +38°C° 0 mm 4 mps 695 mmHg 28%
    15:00 +40°C° 0 mm 4 mps 694 mmHg 26%
    16:00 +38°C° 0 mm 3 mps 694 mmHg 29%
    17:00 +37°C° 0 mm 3 mps 694 mmHg 32%
    18:00 +36°C° 0 mm 3 mps 694 mmHg 34%
    19:00 +36°C° 0.1 mm 3 mps 694 mmHg 35%
    20:00 +35°C° 0.1 mm 3 mps 695 mmHg 36%
    21:00 +35°C° 0.1 mm 3 mps 695 mmHg 36%
    22:00 +34°C° 0 mm 2 mps 695 mmHg 42%
    23:00 +32°C° 0 mm 2 mps 695 mmHg 48%

    Tomorrow, 20 September, Friday

    Time Temperature Precipitation Wind Pressure Humidity
    00:00 +31°C° 0 mm 2 mps 695 mmHg 54%
    01:00 +31°C° 0 mm 1 mps 694 mmHg 56%
    02:00 +31°C° 0 mm 1 mps 694 mmHg 57%
    03:00 +31°C° 0 mm 1 mps 694 mmHg 58%
    04:00 +30°C° 0 mm 1 mps 694 mmHg 60%
    05:00 +30°C° 0 mm 1 mps 694 mmHg 61%
    06:00 +30°C° 0 mm 1 mps 695 mmHg 62%
    07:00 +31°C° 0 mm 1 mps 695 mmHg 56%
    08:00 +32°C° 0 mm 1 mps 695 mmHg 50%
    09:00 +31°C° 0 mm 0 mps 696 mmHg 44%
    10:00 +34°C° 0 mm 1 mps 696 mmHg 39%
    11:00 +35°C° 0 mm 1 mps 696 mmHg 34%
    12:00 +38°C° 0 mm 2 mps 695 mmHg 29%
    13:00 +38°C° 0 mm 2 mps 695 mmHg 28%
    14:00 +38°C° 0 mm 2 mps 694 mmHg 28%
    15:00 +38°C° 0 mm 3 mps 693 mmHg 27%
    16:00 +37°C° 0 mm 3 mps 693 mmHg 29%
    17:00 +37°C° 0 mm 3 mps 693 mmHg 32%
    18:00 +36°C° 0 mm 3 mps 693 mmHg 34%
    19:00 +35°C° 0 mm 3 mps 693 mmHg 38%
    20:00 +34°C° 0 mm 3 mps 694 mmHg 42%
    21:00 +34°C° 0 mm 2 mps 694 mmHg 46%
    22:00 +32°C° 0 mm 2 mps 694 mmHg 50%
    23:00 +31°C° 0 mm 2 mps 694 mmHg 55%

    Day after tomorrow, 21 September, Saturday

    Time Temperature Precipitation Wind Pressure Humidity
    00:00 +31°C° 0 mm 2 mps 693 mmHg 59%
    01:00 +31°C° 0 mm 1 mps 693 mmHg 58%
    02:00 +31°C° 0 mm 1 mps 693 mmHg 56%
    03:00 +31°C° 0 mm 1 mps 692 mmHg 55%
    04:00 +31°C° 0 mm 2 mps 693 mmHg 53%
    05:00 +31°C° 0 mm 3 mps 694 mmHg 52%
    06:00 +33°C° 0 mm 4 mps 694 mmHg 50%
    07:00 +33°C° 0 mm 4 mps 695 mmHg 46%
    08:00 +34°C° 0 mm 4 mps 695 mmHg 42%
    09:00 +34°C° 0 mm 4 mps 695 mmHg 38%
    10:00 +35°C° 0 mm 4 mps 695 mmHg 35%
    11:00 +37°C° 0 mm 3 mps 695 mmHg 31%
    12:00 +38°C° 0 mm 3 mps 695 mmHg 28%
    13:00 +38°C° 0 mm 3 mps 694 mmHg 27%
    14:00 +38°C° 0 mm 3 mps 694 mmHg 26%
    15:00 +39°C° 0 mm 3 mps 693 mmHg 26%
    16:00 +38°C° 0 mm 3 mps 693 mmHg 30%
    17:00 +37°C° 0 mm 3 mps 693 mmHg 34%
    18:00 +36°C° 0 mm 3 mps 693 mmHg 39%
    19:00 +35°C° 0.1 mm 4 mps 693 mmHg 41%
    20:00 +35°C° 0.1 mm 4 mps 693 mmHg 43%
    21:00 +34°C° 0.1 mm 5 mps 694 mmHg 45%
    22:00 +34°C° 0 mm 4 mps 694 mmHg 46%
    23:00 +33°C° 0 mm 3 mps 694 mmHg 48%

    22 September, Sunday

    Time Temperature Precipitation Wind Pressure Humidity
    00:00 +32°C° 0 mm 2 mps 694 mmHg 49%
    01:00 +31°C° 0 mm 1 mps 693 mmHg 50%
    02:00 +31°C° 0 mm 1 mps 693 mmHg 52%
    03:00 +29°C° 0 mm 0 mps 693 mmHg 54%
    04:00 +31°C° 0 mm 1 mps 693 mmHg 53%
    05:00 +30°C° 0 mm 2 mps 694 mmHg 52%
    06:00 +30°C° 0 mm 2 mps 694 mmHg 50%
    07:00 +31°C° 0 mm 3 mps 695 mmHg 45%
    08:00 +34°C° 0 mm 4 mps 695 mmHg 40%
    09:00 +35°C° 0 mm 4 mps 696 mmHg 34%
    10:00 +36°C° 0 mm 4 mps 696 mmHg 32%
    11:00 +37°C° 0 mm 4 mps 695 mmHg 30%
    12:00 +38°C° 0 mm 4 mps 695 mmHg 27%
    13:00 +38°C° 0 mm 4 mps 694 mmHg 26%
    14:00 +39°C° 0 mm 3 mps 694 mmHg 25%
    15:00 +39°C° 0 mm 3 mps 693 mmHg 24%
    16:00 +38°C° 0 mm 3 mps 693 mmHg 28%
    17:00 +37°C° 0 mm 4 mps 693 mmHg 33%
    18:00 +36°C° 0 mm 4 mps 693 mmHg 37%
    19:00 +36°C° 0 mm 4 mps 694 mmHg 35%
    20:00 +36°C° 0 mm 3 mps 694 mmHg 33%
    21:00 +36°C° 0 mm 2 mps 695 mmHg 31%
    22:00 +35°C° 0 mm 3 mps 694 mmHg 38%
    23:00 +33°C° 0 mm 3 mps 694 mmHg 45%

    23 September, Monday

    Time Temperature Precipitation Wind Pressure Humidity
    00:00 +31°C° 0 mm 3 mps 694 mmHg 52%
    01:00 +31°C° 0 mm 2 mps 694 mmHg 54%
    02:00 +30°C° 0 mm 2 mps 694 mmHg 57%
    03:00 +30°C° 0 mm 2 mps 693 mmHg 60%
    04:00 +30°C° 0 mm 1 mps 694 mmHg 61%
    05:00 +29°C° 0 mm 1 mps 694 mmHg 62%
    06:00 +27°C° 0 mm 0 mps 695 mmHg 63%
    07:00 +31°C° 0 mm 1 mps 695 mmHg 55%
    08:00 +32°C° 0 mm 2 mps 696 mmHg 47%
    09:00 +34°C° 0 mm 2 mps 697 mmHg 39%
    10:00 +36°C° 0 mm 3 mps 696 mmHg 35%
    11:00 +37°C° 0 mm 3 mps 696 mmHg 31%
    12:00 +38°C° 0 mm 4 mps 695 mmHg 26%
    13:00 +38°C° 0 mm 3 mps 695 mmHg 26%
    14:00 +38°C° 0 mm 2 mps 694 mmHg 25%
    15:00 +39°C° 0 mm 2 mps 694 mmHg 25%
    16:00 +38°C° 0 mm 3 mps 693 mmHg 29%
    17:00 +37°C° 0 mm 3 mps 693 mmHg 33%
    18:00 +36°C° 0 mm 4 mps 693 mmHg 37%
    19:00 +36°C° 0 mm 3 mps 694 mmHg 36%
    20:00 +36°C° 0 mm 3 mps 694 mmHg 34%
    21:00 +36°C° 0 mm 2 mps 694 mmHg 33%
    22:00 +35°C° 0 mm 2 mps 694 mmHg 38%
    23:00 +34°C° 0 mm 2 mps 694 mmHg 42%

    24 September, Tuesday

    Time Temperature Precipitation Wind Pressure Humidity
    00:00 +32°C° 0 mm 2 mps 694 mmHg 47%
    01:00 +32°C° 0 mm 1 mps 694 mmHg 49%
    02:00 +32°C° 0 mm 1 mps 693 mmHg 50%
    03:00 +29°C° 0 mm 0 mps 693 mmHg 52%
    04:00 +31°C° 0 mm 1 mps 694 mmHg 49%
    05:00 +31°C° 0 mm 2 mps 694 mmHg 46%
    06:00 +31°C° 0 mm 2 mps 695 mmHg 42%
    07:00 +33°C° 0 mm 3 mps 695 mmHg 38%
    08:00 +34°C° 0 mm 5 mps 696 mmHg 34%
    09:00 +35°C° 0 mm 6 mps 696 mmHg 29%
    10:00 +37°C° 0 mm 5 mps 696 mmHg 28%
    11:00 +39°C° 0 mm 5 mps 695 mmHg 26%
    12:00 +40°C° 0 mm 5 mps 695 mmHg 24%
    13:00 +40°C° 0 mm 5 mps 695 mmHg 23%
    14:00 +40°C° 0 mm 4 mps 694 mmHg 22%
    15:00 +41°C° 0 mm 4 mps 693 mmHg 21%
    16:00 +39°C° 0 mm 3 mps 693 mmHg 23%
    17:00 +38°C° 0 mm 3 mps 693 mmHg 26%
    18:00 +37°C° 0 mm 3 mps 693 mmHg 29%
    19:00 +36°C° 0 mm 3 mps 693 mmHg 33%
    20:00 +36°C° 0 mm 3 mps 694 mmHg 37%
    21:00 +35°C° 0 mm 2 mps 694 mmHg 41%
    22:00 +34°C° 0 mm 2 mps 694 mmHg 43%
    23:00 +34°C° 0 mm 2 mps 694 mmHg 45%
    Show more